Location: Iesi
(43.5167°N, 13.2333°E)
Time: 20:02:44
(UTC+00:00)

X-37B - Pass Details

Date: 04 November 2020
Orbit: 384 x 390 km, 45.0° (Epoch: 26 November)

Event Time Altitude Azimuth Distance (km) Brightness Sun altitude
Exits shadow 03:09:04 12° 113° (ESE) 1,299 3.9 -28.9°
Drops below altitude 10° 03:09:34 10° 106° (ESE) 1,413 4.2 -28.8°
Sets 03:12:12 0° 83° (E) 2,270 5.7 -28.4°
